Location: Bronnegerveen
(52.9548°N, 6.8388°E)
Time: 01:33:11
(UTC+00:00)

Cosmos 2026 Rocket - Pass Details

Date: 15 June 2025
Orbit: 937 x 1001 km, 82.9° (Epoch: 07 July)

Event Time Altitude Azimuth Distance (km) Brightness Sun altitude
Exits shadow 01:06:31 - 172° (S) 2,813 5.9 -11.1°
Reaches altitude 10° 01:06:42 10° 171° (S) 2,743 5.8 -11.1°
Maximum altitude 01:12:52 60° 94° (E) 1,115 4.4 -10.7°
Drops below altitude 10° 01:18:58 10° 16° (NNE) 2,719 7.9 -10.3°
Sets 01:21:30 0° 13° (NNE) 3,661 8.9 -10.2°
